AirNav   Air Wisconsin pilot careers
 
 916 users online  

0R5 David G Joyce Airport
Winnfield, Louisiana, USA

GOING TO WINNFIELD?


FAA INFORMATION EFFECTIVE 13 SEPTEMBER 2018

Location

FAA Identifier: 0R5
Lat/Long: 31-57-49.1840N / 092-39-36.9380W
31-57.819733N / 092-39.615633W
31.9636622 / -92.6602606
(estimated)
Elevation: 146 ft. / 44.5 m (surveyed)
Variation: 02E (2010)
From city: 3 miles NW of WINNFIELD, LA
Time zone: UTC -5 (UTC -6 during Standard Time)
Zip code: 71483

Airport Operations

Airport use: Open to the public
Activation date: 09/1945
Control tower: no
ARTCC: HOUSTON CENTER
FSS: DE RIDDER FLIGHT SERVICE STATION
NOTAMs facility: DRI (NOTAM-D service available)
Attendance: UNATNDD
Wind indicator: lighted
Segmented circle: no
Lights: DUSK-DAWN. MIRL RY 09/27 & REIL RYS 09 & 27 PRESET LOW INTST DUSK-DAWN; TO INCR INTST ACTVT - CTAF.
Beacon: white-green (lighted land airport)
ROTG BCN OBSCURED BY TREES SOUTH, WEST AND EAST. Operates sunset to sunrise.

Airport Communications

CTAF/UNICOM: 122.7
POLK APPROACH: 125.4
POLK DEPARTURE: 125.4

Nearby radio navigation aids

VOR radial/distance  VOR name  Freq  Var
SWBr122/1.0SAWMILL VOR/DME113.7502E

 
NDB name  Hdg/Dist  Freq  Var  ID
NATCHITOCHES045/28.140704EOOC --- --- -.-.
RUSTON182/38.936803EROQ .-. --- --.-

Airport Services

Parking: tiedowns
Airframe service: NONE
Powerplant service: NONE
Bottled oxygen: NONE
Bulk oxygen: NONE

Runway Information

Runway 9/27

Dimensions: 3002 x 100 ft. / 915 x 30 m
Surface: asphalt, in excellent condition
Weight bearing capacity: 
Single wheel: 4.0
Runway edge lights: medium intensity
RUNWAY 9  RUNWAY 27
Latitude: 31-57.817883N31-57.823033N
Longitude: 092-39.906417W092-39.325583W
Elevation: 146.0 ft.118.0 ft.
Gradient: 0.9%0.9%
Traffic pattern: leftleft
Runway heading: 087 magnetic, 089 true267 magnetic, 269 true
Markings: nonprecision, in good conditionnonprecision, in good condition
Visual slope indicator: 2-light PAPI on left (3.00 degrees glide path)2-light PAPI on left (3.45 degrees glide path)
Runway end identifier lights: yesyes
Touchdown point: yes, no lightsyes, no lights
Obstructions: 74 ft. trees, 1775 ft. from runway, 434 ft. left of centerline, 21:1 slope to clear69 ft. trees, 938 ft. from runway, 238 ft. right of centerline, 10:1 slope to clear

Airport Ownership and Management from official FAA records

Ownership: Publicly-owned
Owner: CITY OF WINNFIELD
PO BOX 509
WINNFIELD, LA 71483
Phone 318-628-3939
Manager: AUNDRA BASS
PO BOX 509
WINNFIELD, LA 71483
Phone (318) 628-3939

Airport Operational Statistics

Aircraft based on the field: 4
Single engine airplanes: 4
    
Aircraft operations: avg 86/week *
56% transient general aviation
44% local general aviation
* for 12-month period ending 03 November 2017

Instrument Procedures

NOTE: All procedures below are presented as PDF files. If you need a reader for these files, you should download the free Adobe Reader.

NOT FOR NAVIGATION. Please procure official charts for flight.
FAA instrument procedures published for use from 13 September 2018 at 0901Z to 11 October 2018 at 0900Z.

 
IAPs - Instrument Approach Procedures
RNAV (GPS) RWY 09   download (155KB)
RNAV (GPS) RWY 27   download (166KB)
NOTE: Special Take-Off Minimums/Departure Procedures apply   download (116KB)

Other nearby airports with instrument procedures:

F88 - Jonesboro Airport (15 nm N)
KIER - Natchitoches Regional Airport (26 nm SW)
KRSN - Ruston Regional Airport (33 nm N)
KAEX - Alexandria International Airport (39 nm S)
KESF - Esler Regional Airport (39 nm SE)
 
Loc | Ops | Rwys | IFR | FBO | Links
Com | Nav | Svcs | Stats | Notes


 
Area around 0R5 (David G Joyce Airport)
 
Road maps at: MapQuest Bing Google
 
Aerial photo
WARNING: Photo may not be current or correct
Aerial photo of 0R5 (David G Joyce Airport)
Photo by Gene Greenlees, MD
Taken in June 2010

Do you have a better or more recent aerial photo of David G Joyce Airport that you would like to share? If so, please send us your photo.

 
Sectional chart

 
Airport distance calculator
Flying to David G Joyce Airport? Find the distance to fly.

From to 0R5

Sunrise and sunset
Times for 22-Sep-2018
 Local
(UTC-5)
 Zulu
(UTC)
Morning civil twilight06:3511:35
Sunrise07:0012:00
Sunset19:0700:07
Evening civil twilight19:3100:31

Current date and time
Zulu (UTC)  22-Sep-2018 20:34:23
Local (UTC-5)  22-Sep-2018 15:34:23
 
METAR
KIER 
26nm SW 
222015Z AUTO 15006KT 7SM RA SCT005 BKN017 OVC055 25/24 A2995 RMK AO2 LTG DSNT W P0001 T02490241
KRSN 
33nm N 
222015Z AUTO 10003KT 7SM RA OVC007 24/23 A3001 RMK AO2 LTG DSNT E P0004 T02350228
KAEX 
38nm S 
222005Z 32004KT 5SM -RA BR SCT046 SCT070 OVC095 24/22 A2995 RMK AO2 P0001 T02390222
KESF 
39nm SE 
221953Z AUTO 00000KT 10SM -RA FEW008 SCT025 BKN047 24/24 A2998 RMK AO2 LTG DSNT N AND E RAB1817B1850 TSB1818E1833 SLP148 P0023 T02440239 $
KAQV 
44nm SW 
222008Z AUTO 00000KT 8SM -RA BKN005 BKN075 OVC090 24/06 A2995 RMK AO2 P0000 T02390056
KMLU 
46nm NE 
222016Z 28007KT 10SM BKN025 OVC031 24/23 A2999 RMK AO2 T02440233
TAF
KAEX 
38nm S 
222001Z 2220/2318 24005KT P6SM SHRA SCT025 BKN060 TEMPO 2220/2221 2SM RA BR FM222200 VRB05KT P6SM VCSH BKN050 OVC100 FM230200 VRB03KT P6SM BKN250
KMLU 
46nm NE 
221727Z 2218/2318 18005KT 6SM -RA BR VCTS BKN028CB BKN035 TEMPO 2218/2222 VRB15G25KT 3SM TSRA BKN020CB FM230000 04004KT 6SM -RA BR BKN035 OVC100 TEMPO 2301/2305 BKN015 FM230500 05004KT 6SM -RA BR BKN015 OVC025 FM231000 04004KT 4SM -RA BR OVC007
NOTAMs
Click for the latest NOTAMs
NOTAMs are issued by the DoD/FAA and will open in a separate window not controlled by AirNav.

 

 
 

Would you like to see your business listed on this page?

 If your business provides an interesting product or service to pilots, flight crews, aircraft, or users of the David G Joyce Airport, you should consider listing it here.  To start the listing process, click on the button below
 
Add a business
 

Other Pages about David G Joyce Airport

Update a link
 
Copyright © AirNav, LLC. All rights reserved. Privacy Policy  Contact